Regional Weather Roundup
Issued by NWS Cleveland, OH

Home | Current Version | Previous Version | Graphics & Text | Print | Product List | Glossary On
Versions: 1 2 3 4 5 6 7 8 9 10 11 12 13 14 15 16 17 18 19 20 21 22 23 24 25 26 27 28 29 30 31 32 33 34 35 36 37 38 39 40 41 42 43 44 45 46 47 48 49 50
000
ASUS41 KCLE 281510
RWRCLE
OHIO REGIONAL WEATHER ROUNDUP
NATIONAL WEATHER SERVICE CLEVELAND, OH
1100 AM EDT WED JUN 28 2017

NOTE: "FAIR" INDICATES FEW OR NO CLOUDS BELOW 12,000 FEET WITH NO
SIGNIFICANT WEATHER AND/OR OBSTRUCTIONS TO VISIBILITY.

OHZ001>008-015>018-024>027-034-035-043-044-281600-
   NORTHWEST OHIO

CITY           SKY/WX    TMP DP  RH WIND       PRES   REMARKS
DEFIANCE       SUNNY     71  50  47 S12G21    30.11F
FINDLAY        SUNNY     73  47  39 S12G20    30.13S
TOLEDO EXPRESS SUNNY     72  52  49 SW8       30.11F
TOLEDO EXEC    SUNNY     74  48  39 SW12      30.12F
LIMA           SUNNY     71  50  47 S15       30.14F
$$

OHZ009>014-019>023-028>033-038-089-281600-
   NORTHEAST OHIO

CITY           SKY/WX    TMP DP  RH WIND       PRES   REMARKS
CLE-HOPKINS    MOSUNNY   73  51  46 W9        30.16F
CLE-LAKEFRONT  SUNNY     72  51  47 W6        30.14R
CUY CO. ARPT   SUNNY     72  45  37 W12       30.16F
LORAIN-ELYRIA  SUNNY     71  47  42 SW10      30.15S
ASHTABULA      SUNNY     70  51  51 W6        30.16F
AKRON-CANTON   SUNNY     71  47  42 SW8       30.18S
WOOSTER        SUNNY     70  49  47 SW9       30.18S
MANSFIELD      SUNNY     71  49  45 SW10      30.18R
YOUNGSTOWN     MOSUNNY   70  48  45 W12       30.17F
$$

OHZ042-051>053-060>062-070>072-077>081-281600-
  SOUTHWEST OHIO

CITY           SKY/WX    TMP DP  RH WIND       PRES   REMARKS
CINC-COVINGTON PTSUNNY   73  56  54 S13       30.17S
CINC-LUNKEN    SUNNY     72  57  59 S9        30.18S
HAMILTON       SUNNY     74  53  48 S8        30.17S
DAYTON         PTSUNNY   71  51  49 S13G18    30.17F
WRIGHT-PAT AFB SUNNY     72  52  50 S13       30.16F
DAYTON GENERAL SUNNY     71  53  52 S13       30.17S
WILMINGTON     SUNNY     71  54  54 S13G20    30.17F
$$

OHZ036-037-039>041-045>050-054>059-063>069-073>076-082>088-281600-
  CENTRAL AND SOUTHEAST OHIO

CITY           SKY/WX    TMP DP  RH WIND       PRES   REMARKS
COLUMBUS       PTSUNNY   71  53  52 SW10      30.18R
OSU AIRPORT    SUNNY     71  52  50 S10       30.17S
BOLTON FIELD   SUNNY     72  55  56 S8        30.19R
RICKENBACK AFB SUNNY     71  52  52 SW10      30.18S
NEWARK         SUNNY     73  49  42 SW7       30.18R
MARION         SUNNY     71  49  45 SW8       30.17R
LANCASTER      SUNNY     71  54  54 VRB7      30.19R
ZANESVILLE     SUNNY     70  53  54 S5        30.19R
NEW PHILLY     NOT AVBL
$$




USA.gov is the U.S. government's official web portal to all federal, state and local government web resources and services.